SCOUT G-1 DEB, 19140

Orbit data source: Space-Track

SCOUT G-1 DEB, 19140 is space debris in LEO originally from a launch on Tue, 26 Apr 1988 UTC launched from the Air Force Western Test Range (AFWTR). Debris objects in space refer to the collection of defunct objects orbiting the Earth. Examples of debris include non-operational satellites, rocket bodies, and fragments generated from explosions, collisions, or faulty payload assembly.

Loading next visibility...
Identifier
19140, 1988-033F
Orbit
LEO
Country
Flag of USUS
Related business
Manufacturer
Unknown
Mission
Spacecraft
Bus & Motor
Unknown
Mass
Unknown
Launch date (UTC)
1988-04-26 (38 years ago)
Launch vehicle
Unknown
Launch site
Air Force Western Test Range (AFWTR)
Object type
Payload
Rocket body
Debris
Shape & HBR
Unknown shape, 0.1 m
Radar Cross Section
Small (<0.1 m²)

Expand to show TLE details & history
Last TLE update: 3 days ago

TLE from 3 days ago
0 SCOUT G-1 DEB
1 19140U 88033F   26170.84416236  .00001509  00000-0  15651-2 0  9992
2 19140  90.3040  13.9326 0223090 147.5988 340.9054 13.64962714872460
Epoch: 2026-06-19T20:15Z
TLE epoch observation values (Epoch: 2026-06-19T20:15:35.627Z)
Latitude
52.45132°
Longitude
-17.63976°
Altitude
870.771 km
Speed
7.5 km/s
True Right ascension
12h 57m 18s
True Declination
52° 17' 15"
Sunlit
Object was in daylight at epoch
Visualization orbit readout
Latitude
Unknown
Longitude
Unknown
Altitude
Unknown
Speed
Unknown
Apparent Right ascension
Unknown
Apparent Declination
Unknown
Sunlit
N/A
Visualization observer readout
Local Sidereal Time
23:08:11
Azimuth
Unknown
Elevation
Unknown
Doppler factor
Unknown
Orbital elements
Apogee altitude
1,179.665 km
Perigee altitude
849.809 km
Semi-major axis
7,392.874 km
Eccentricity
0.02231
Inclination
90.304°
RAAN
13.9326°
Arg. of periapsis
147.5988°
True anomaly
340.04654°
Mean anomaly
340.9054°
Eccentric anomaly
340.47827°
Mean motion
3.41447 °/min
Orbital period
105.43 mins
BSTAR
0.0015651
Loading maneuver chart data...
Computing Atmospheric mass density...
Loading historical data...
Loading historical data...
Loading historical data...
Loading historical data...
Loading historical data...
Loading historical data...
Loading historical data...

Documentation

Showing up to 5 results
|